Date String (YYYY-MM-DD hh:mm:ss) UTC,Instrument flags,absolute air pressure of the measurement (hPa),sample flow rate (lpm),inlet stack bypass flow (lpm),air temperature of the measurement (°C),ambient temperature measured by the external sensor (°C),aerosol sample conditioner tube jacket temperature (°C),OPC LED temperature (°C),internal box temperature (°C),relative humidity of the measurement (%),span deviation,mass concentration of particles derived from Lorenz-Mie calculation of OPC scattering (μg/m³),mass concentration of particles derived from Lorenz-Mie calculation of OPC scattering (μg/m³),mass concentration of particles derived from Lorenz-Mie calculation of OPC scattering (μg/m³)
DateTimeUTC,F1_M11,P_M11,Q1_M11,Q2_M11,T1_M11,T2_M11,T3_M11,T4_M11,T5_M11,U1_M11,ZSPAN_M11,X0_M11,X2_M11,X1_M11
2024-05-03 19:00:00,SystemResetWarning,0820.8,5.01,000.00,024.4,023.6,000.0,032.6,026.2,014.6,0000.0,0017.31,0005.26,0003.03
2024-05-03 19:01:00,SystemResetWarning,0820.8,5.00,000.00,024.4,023.8,000.0,032.6,026.3,013.1,0000.0,0017.11,0005.34,0003.04
2024-05-03 19:02:00,SystemResetWarning,0820.8,5.01,000.00,024.5,023.9,000.0,032.6,026.4,012.2,0000.0,0016.75,0005.33,0003.06
2024-05-03 19:03:00,SystemResetWarning,0820.8,5.00,000.00,024.6,024.1,000.0,032.6,026.5,013.3,0000.0,0016.16,0005.33,0003.06
2024-05-03 19:04:00,SystemResetWarning,0820.8,5.00,000.00,024.7,024.2,000.0,032.6,026.6,013.8,0000.0,0016.81,0005.30,0003.06
2024-05-03 19:05:00,SystemResetWarning,0820.8,5.00,000.00,024.8,024.3,000.0,032.7,026.7,013.4,0000.0,0016.98,0005.26,0003.06
2024-05-03 19:06:00,SystemResetWarning,0820.8,5.00,000.00,024.8,024.3,000.0,032.7,026.7,013.1,0000.0,0017.35,0005.25,0003.06
2024-05-03 19:07:00,SystemResetWarning,0820.7,5.00,000.00,024.7,022.7,000.0,032.8,025.8,013.6,0000.0,0017.24,0005.23,0003.08
2024-05-03 19:08:00,SystemResetWarning,0820.6,5.01,000.00,024.2,021.1,000.0,032.9,024.9,013.1,0000.0,0016.40,0005.26,0003.06
2024-05-03 19:09:00,SystemResetWarning,0820.7,5.01,000.00,024.0,021.4,000.0,032.8,025.0,013.2,0000.0,0016.37,0005.29,0003.07
2024-05-03 19:10:00,SystemResetWarning,0820.7,4.99,000.00,024.0,021.8,000.0,032.7,025.2,013.0,0000.0,0016.25,0005.21,0003.05
2024-05-03 19:11:00,SystemResetWarning,0820.7,5.00,000.00,024.0,022.2,000.0,032.6,025.5,013.4,0000.0,0016.63,0005.19,0003.03
2024-05-03 19:12:00,SystemResetWarning,0820.6,5.00,000.00,024.1,022.6,000.0,032.5,025.6,013.7,0000.0,0017.14,0005.15,0003.04
2024-05-03 19:13:00,SystemResetWarning,0820.6,5.00,000.00,024.2,023.0,000.0,032.5,025.9,014.0,0000.0,0017.31,0005.15,0003.04
2024-05-03 19:14:00,SystemResetWarning,0820.6,5.00,000.00,024.2,023.2,000.0,032.5,026.0,014.5,0000.0,0017.54,0005.18,0003.04
2024-05-03 19:15:00,SystemResetWarning,0820.7,4.99,000.00,024.3,023.5,000.0,032.5,026.1,014.7,0000.0,0016.77,0005.15,0003.04
2024-05-03 19:16:00,SystemResetWarning,0820.7,4.99,000.00,024.4,023.7,000.0,032.5,026.3,015.6,0000.0,0016.33,0005.15,0003.04
2024-05-03 19:17:00,SystemResetWarning,0820.7,5.00,000.00,024.5,023.9,000.0,032.5,026.3,016.6,0000.0,0015.82,0005.15,0003.03
2024-05-03 19:18:00,SystemResetWarning,0820.7,5.01,000.00,024.5,024.0,000.0,032.5,026.5,016.5,0000.0,0016.66,0005.20,0003.02
2024-05-03 19:19:00,SystemResetWarning,0820.7,5.00,000.00,024.6,024.1,000.0,032.5,026.6,015.9,0000.0,0017.25,0005.31,0003.05
2024-05-03 19:20:00,SystemResetWarning,0820.7,4.99,000.00,024.7,024.3,000.0,032.6,026.7,015.6,0000.0,0017.74,0005.37,0003.04
2024-05-03 19:21:00,SystemResetWarning,0820.6,5.00,000.00,024.8,024.4,000.0,032.6,026.7,015.7,0000.0,0017.87,0005.44,0003.06
2024-05-03 19:22:00,SystemResetWarning,0820.6,5.00,000.00,024.8,023.7,000.0,032.7,026.3,015.4,0000.0,0017.43,0005.46,0003.07
2024-05-03 19:23:00,SystemResetWarning,0820.6,5.00,000.00,024.4,021.7,000.0,032.8,025.2,015.8,0000.0,0018.07,0005.53,0003.08
2024-05-03 19:24:00,SystemResetWarning,0820.9,5.00,000.00,024.1,021.3,000.0,032.8,024.9,015.9,0000.0,0017.85,0005.50,0003.09
2024-05-03 19:25:00,SystemResetWarning,0820.8,5.02,000.00,024.0,021.7,000.0,032.7,025.1,016.7,0000.0,0018.14,0005.50,0003.10
2024-05-03 19:26:00,SystemResetWarning,0820.8,5.00,000.00,024.0,022.1,000.0,032.6,025.3,016.1,0000.0,0018.76,0005.57,0003.12
2024-05-03 19:27:00,SystemResetWarning,0820.9,5.00,000.00,024.1,022.5,000.0,032.5,025.6,015.7,0000.0,0018.29,0005.60,0003.11
2024-05-03 19:28:00,SystemResetWarning,0820.8,5.01,000.00,024.1,022.8,000.0,032.5,025.8,015.5,0000.0,0018.71,0005.61,0003.11
2024-05-03 19:29:00,SystemResetWarning,0820.7,5.00,000.00,024.2,023.1,000.0,032.4,025.9,016.1,0000.0,0018.00,0005.62,0003.13
2024-05-03 19:30:00,SystemResetWarning,0820.7,4.99,000.00,024.3,023.4,000.0,032.4,026.1,015.6,0000.0,0017.48,0005.57,0003.12
2024-05-03 19:31:00,SystemResetWarning,0820.8,4.99,000.00,024.3,023.6,000.0,032.4,026.2,014.6,0000.0,0016.99,0005.50,0003.12
2024-05-03 19:32:00,SystemResetWarning,0820.9,5.01,000.00,024.4,023.8,000.0,032.5,026.3,014.8,0000.0,0016.70,0005.42,0003.11
2024-05-03 19:33:00,SystemResetWarning,0820.9,5.01,000.00,024.5,023.9,000.0,032.5,026.4,015.6,0000.0,0017.72,0005.35,0003.11
2024-05-03 19:34:00,SystemResetWarning,0820.9,4.99,000.00,024.6,024.1,000.0,032.5,026.5,015.0,0000.0,0016.80,0005.25,0003.10
2024-05-03 19:35:00,SystemResetWarning,0820.5,5.00,000.00,024.7,024.2,000.0,032.5,026.6,014.7,0000.0,0016.85,0005.28,0003.10
2024-05-03 19:36:00,SystemResetWarning,0820.4,5.00,000.00,024.7,024.3,000.0,032.6,026.6,015.4,0000.0,0016.52,0005.26,0003.10
2024-05-03 19:37:00,SystemResetWarning,0820.5,5.01,000.00,024.8,024.4,000.0,032.6,026.7,014.9,0000.0,0015.73,0005.23,0003.09
2024-05-03 19:38:00,SystemResetWarning,0820.5,5.00,000.00,024.9,024.5,000.0,032.7,026.8,014.3,0000.0,0015.61,0005.21,0003.10
2024-05-03 19:39:00,SystemResetWarning,0820.5,4.99,000.00,024.9,023.9,000.0,032.8,026.5,014.2,0000.0,0015.11,0005.18,0003.10
2024-05-03 19:40:00,SystemResetWarning,0820.9,4.99,000.00,024.5,021.9,000.0,032.9,025.3,015.8,0000.0,0015.78,0005.11,0003.10
2024-05-03 19:41:00,SystemResetWarning,0820.7,5.02,000.00,024.2,021.2,000.0,032.9,024.9,015.4,0000.0,0018.23,0005.10,0003.09
2024-05-03 19:42:00,SystemResetWarning,0820.7,5.00,000.00,024.1,021.7,000.0,032.8,025.1,016.4,0000.0,0018.86,0005.13,0003.08
2024-05-03 19:43:00,SystemResetWarning,0820.7,4.99,000.00,024.1,022.0,000.0,032.7,025.4,016.2,0000.0,0019.01,0005.17,0003.09
2024-05-03 19:44:00,SystemResetWarning,0820.7,4.99,000.00,024.1,022.4,000.0,032.6,025.6,016.3,0000.0,0019.03,0005.21,0003.10
2024-05-03 19:45:00,SystemResetWarning,0820.7,5.00,000.00,024.2,022.8,000.0,032.5,025.8,015.8,0000.0,0019.36,0005.28,0003.11
2024-05-03 19:46:00,SystemResetWarning,0820.8,5.01,000.00,024.3,023.1,000.0,032.5,026.0,014.2,0000.0,0020.52,0005.34,0003.12
2024-05-03 19:47:00,SystemResetWarning,0820.9,5.01,000.00,024.3,023.4,000.0,032.5,026.1,013.0,0000.0,0021.63,0005.38,0003.12
2024-05-03 19:48:00,SystemResetWarning,0820.9,5.00,000.00,024.4,023.6,000.0,032.5,026.3,014.0,0000.0,0021.80,0005.44,0003.12
2024-05-03 19:49:00,SystemResetWarning,0821.0,4.98,000.00,024.5,023.8,000.0,032.5,026.4,014.9,0000.0,0022.15,0005.48,0003.11
2024-05-03 19:50:00,SystemResetWarning,0820.8,5.00,000.00,024.6,024.0,000.0,032.5,026.5,013.7,0000.0,0022.79,0005.49,0003.11
2024-05-03 19:51:00,SystemResetWarning,0820.7,5.02,000.00,024.6,024.1,000.0,032.6,026.6,014.1,0000.0,0023.30,0005.54,0003.11
2024-05-03 19:52:00,SystemResetWarning,0820.6,4.99,000.00,024.7,024.2,000.0,032.6,026.6,015.0,0000.0,0021.69,0005.53,0003.12
2024-05-03 19:53:00,SystemResetWarning,0820.7,5.00,000.00,024.8,024.3,000.0,032.6,026.7,015.2,0000.0,0020.74,0005.49,0003.12
2024-05-03 19:54:00,SystemResetWarning,0820.5,5.00,000.00,024.9,024.3,000.0,032.7,026.7,014.3,0000.0,0020.37,0005.50,0003.12
2024-05-03 19:55:00,SystemResetWarning,0820.7,4.99,000.00,024.7,022.8,000.0,032.8,025.9,014.3,0000.0,0019.53,0005.49,0003.12
2024-05-03 19:56:00,SystemResetWarning,0821.0,5.01,000.00,024.3,021.2,000.0,032.8,025.0,014.8,0000.0,0019.62,0005.48,0003.12
2024-05-03 19:57:00,SystemResetWarning,0820.8,5.02,000.00,024.1,021.4,000.0,032.8,025.0,013.6,0000.0,0019.96,0005.51,0003.12
2024-05-03 19:58:00,SystemResetWarning,0820.9,4.99,000.00,024.1,021.9,000.0,032.7,025.2,014.6,0000.0,0020.47,0005.53,0003.12
2024-05-03 19:59:00,SystemResetWarning,0820.8,4.99,000.00,024.1,022.3,000.0,032.6,025.5,012.0,0000.0,0020.32,0005.50,0003.11
